Tracking 25612 objects as of 20-May-2022
HD Live streaming from Space Station
objects crossing your sky now

CZ-2C R/B

Track CZ-2C R/B now!
10-day predictions


NORAD ID: 39364
Int'l Code: 2013-059B
Perigee: 449.4 km
Apogee: 510.7 km
Inclination: 97.2 °
Period: 94.1 minutes
Semi major axis: 6851 km
RCS: Unknown
Launch date: October 29, 2013
Source: People's Republic of China (PRC)
Launch site: Taiyaun Space Center, China (TSC)

Note: This is a ROCKET BODY
aabbcc
Your satellite tracking list
Your tracking list is empty




NASA's NSSDC Master Catalog

Two Line Element Set (TLE):
1 39364U 13059B   22139.73090767  .00015516  00000-0  50452-3 0  9996
2 39364  97.1616 194.0329 0044753  75.9160 284.7050 15.30981518475818
Source of the keplerian elements: AFSPC